This is the latest recevied weather packets stored in our database for station/object W8MRL. If no packets are shown the sender has not sent any weather packets the latest 10 day(s).
| Time | Temp. | Humidity | Pressure | Rain* | Wind** | Luminosity | Snow |
|---|---|---|---|---|---|---|---|
| 1777482937 | 13.33° C | 92% | 1013.8 hPa | 0.25 mm | - | - | - |
| 1777482038 | 13.33° C | 92% | 1013.8 hPa | 0.25 mm | - | - | - |
| 1777481135 | 13.89° C | 94% | 1013.7 hPa | 0.51 mm | - | - | - |
| 1777480233 | 13.33° C | 94% | 1013.9 hPa | 0.51 mm | - | - | - |
| 1777479332 | 13.33° C | 95% | 1013.8 hPa | 0.76 mm | - | - | - |
| 1777478450 | 13.33° C | 94% | 1013.7 hPa | 0.76 mm | - | - | - |
| 1777477531 | 13.33° C | 95% | 1013.5 hPa | 0.76 mm | - | - | - |
| 1777476633 | 13.33° C | 96% | 1013.4 hPa | 1.27 mm | - | - | - |
| 1777475730 | 12.78° C | 96% | 1013.4 hPa | 2.03 mm | - | - | - |
| 1777474832 | 12.78° C | 96% | 1013.6 hPa | 3.56 mm | - | - | - |
| 1777473929 | 12.22° C | 96% | 1013.5 hPa | 4.32 mm | - | - | - |
| 1777473088 | 12.22° C | 96% | 1013.3 hPa | 4.32 mm | - | - | - |
| 1777472126 | 12.22° C | 96% | 1013.8 hPa | 4.83 mm | - | - | - |
| 1777471225 | 12.22° C | 95% | 1013.2 hPa | 3.56 mm | - | - | - |
| 1777470328 | 12.22° C | 95% | 1013.5 hPa | 2.54 mm | - | - | - |
| 1777469424 | 12.22° C | 95% | 1013.2 hPa | 1.78 mm | - | - | - |
| 1777468530 | 12.22° C | 95% | 1013.8 hPa | 0.51 mm | - | - | - |
| 1777467621 | 12.22° C | 95% | 1013.9 hPa | 0 mm | - | - | - |
| 1777466722 | 12.22° C | 96% | 1013.9 hPa | 0 mm | - | - | - |
| 1777465820 | 12.22° C | 96% | 1014 hPa | 0 mm | - | - | - |
| 1777464919 | 12.22° C | 96% | 1014.4 hPa | 0 mm | - | - | - |
| 1777464018 | 12.22° C | 96% | 1014.4 hPa | 0 mm | - | - | - |
| 1777463122 | 12.22° C | 96% | 1014 hPa | 0 mm | - | - | - |
| 1777462217 | 12.22° C | 96% | 1014.2 hPa | 0 mm | - | - | - |
| 1777461318 | 12.22° C | 96% | 1014.4 hPa | 0 mm | - | - | - |
* Rain latest hour (hover to see other rain measurements)
** Current wind speed in m/s (hover to see current wind gust speed)